When you browse on this site, cookies collect data to enhance your experience and personalize the content and advertising you see.
Visit our Privacy Policy to learn more. By continuing to use the site, you agree to this use of cookies and data.
EN

Hourly Weather Belém

Today, 24 September, Thursday

Time Temperature Precipitation Wind Pressure Humidity
00:00 +25°C° 0 mm 2 mps 759 mmHg 94%
01:00 +25°C° 0 mm 2 mps 759 mmHg 94%
02:00 +25°C° 0 mm 2 mps 758 mmHg 95%
03:00 +25°C° 0 mm 2 mps 758 mmHg 95%
04:00 +25°C° 0 mm 2 mps 758 mmHg 95%
05:00 +25°C° 0 mm 3 mps 758 mmHg 95%
06:00 +25°C° 0 mm 3 mps 758 mmHg 95%
07:00 +27°C° 0 mm 3 mps 759 mmHg 87%
08:00 +28°C° 0 mm 3 mps 759 mmHg 78%
09:00 +30°C° 0 mm 3 mps 760 mmHg 70%
10:00 +33°C° 0 mm 3 mps 760 mmHg 62%
11:00 +35°C° 0 mm 3 mps 759 mmHg 54%
12:00 +37°C° 0 mm 3 mps 759 mmHg 46%
13:00 +35°C° 0.5 mm 3 mps 758 mmHg 56%
14:00 +33°C° 0.5 mm 4 mps 758 mmHg 66%
15:00 +30°C° 0.5 mm 5 mps 757 mmHg 77%
16:00 +30°C° 0.1 mm 5 mps 757 mmHg 77%
17:00 +29°C° 0.1 mm 5 mps 757 mmHg 78%
18:00 +29°C° 0.1 mm 5 mps 757 mmHg 78%
19:00 +28°C° 0 mm 5 mps 758 mmHg 79%
20:00 +28°C° 0 mm 5 mps 758 mmHg 80%
21:00 +27°C° 0 mm 4 mps 759 mmHg 81%
22:00 +27°C° 0 mm 4 mps 759 mmHg 83%
23:00 +27°C° 0 mm 3 mps 759 mmHg 86%

Tomorrow, 25 September, Friday

Time Temperature Precipitation Wind Pressure Humidity
00:00 +26°C° 0 mm 3 mps 759 mmHg 88%
01:00 +26°C° 0 mm 3 mps 758 mmHg 88%
02:00 +26°C° 0 mm 3 mps 758 mmHg 88%
03:00 +26°C° 0 mm 3 mps 757 mmHg 89%
04:00 +26°C° 0 mm 3 mps 758 mmHg 90%
05:00 +26°C° 0 mm 3 mps 758 mmHg 92%
06:00 +25°C° 0 mm 3 mps 758 mmHg 94%
07:00 +27°C° 0 mm 3 mps 759 mmHg 85%
08:00 +29°C° 0 mm 3 mps 759 mmHg 77%
09:00 +30°C° 0 mm 3 mps 760 mmHg 69%
10:00 +33°C° 0 mm 3 mps 759 mmHg 63%
11:00 +34°C° 0 mm 3 mps 759 mmHg 57%
12:00 +36°C° 0 mm 3 mps 759 mmHg 52%
13:00 +34°C° 0.5 mm 4 mps 758 mmHg 60%
14:00 +33°C° 0.5 mm 4 mps 757 mmHg 68%
15:00 +32°C° 0.5 mm 4 mps 756 mmHg 76%
16:00 +30°C° 0.7 mm 4 mps 756 mmHg 81%
17:00 +28°C° 0.7 mm 4 mps 757 mmHg 85%
18:00 +27°C° 0.7 mm 4 mps 757 mmHg 89%
19:00 +27°C° 0 mm 4 mps 757 mmHg 89%
20:00 +26°C° 0 mm 3 mps 757 mmHg 90%
21:00 +26°C° 0 mm 3 mps 758 mmHg 90%
22:00 +26°C° 0 mm 3 mps 758 mmHg 90%
23:00 +25°C° 0 mm 3 mps 758 mmHg 91%

Day after tomorrow, 26 September, Saturday

Time Temperature Precipitation Wind Pressure Humidity
00:00 +25°C° 0 mm 3 mps 758 mmHg 92%
01:00 +25°C° 0 mm 3 mps 758 mmHg 92%
02:00 +25°C° 0 mm 3 mps 757 mmHg 93%
03:00 +25°C° 0 mm 3 mps 757 mmHg 93%
04:00 +25°C° 0 mm 3 mps 757 mmHg 94%
05:00 +25°C° 0 mm 3 mps 757 mmHg 95%
06:00 +25°C° 0 mm 3 mps 757 mmHg 96%
07:00 +26°C° 0 mm 3 mps 757 mmHg 89%
08:00 +28°C° 0 mm 3 mps 758 mmHg 82%
09:00 +29°C° 0 mm 3 mps 758 mmHg 75%
10:00 +30°C° 0 mm 3 mps 758 mmHg 70%
11:00 +31°C° 0 mm 3 mps 758 mmHg 66%
12:00 +32°C° 0 mm 2 mps 757 mmHg 62%
13:00 +32°C° 0.2 mm 2 mps 757 mmHg 62%
14:00 +34°C° 0.2 mm 3 mps 756 mmHg 63%
15:00 +34°C° 0.2 mm 3 mps 755 mmHg 64%
16:00 +31°C° 0.4 mm 3 mps 755 mmHg 72%
17:00 +29°C° 0.4 mm 3 mps 755 mmHg 80%
18:00 +27°C° 0.4 mm 3 mps 755 mmHg 89%
19:00 +27°C° 0 mm 3 mps 756 mmHg 90%
20:00 +26°C° 0 mm 3 mps 756 mmHg 90%
21:00 +26°C° 0 mm 3 mps 757 mmHg 91%
22:00 +26°C° 0 mm 3 mps 757 mmHg 92%
23:00 +25°C° 0 mm 3 mps 757 mmHg 92%

27 September, Sunday

Time Temperature Precipitation Wind Pressure Humidity
00:00 +25°C° 0 mm 3 mps 756 mmHg 93%
01:00 +25°C° 0 mm 3 mps 756 mmHg 94%
02:00 +25°C° 0 mm 3 mps 756 mmHg 94%
03:00 +25°C° 0 mm 3 mps 755 mmHg 95%
04:00 +25°C° 0 mm 3 mps 755 mmHg 95%
05:00 +25°C° 0 mm 3 mps 755 mmHg 95%
06:00 +24°C° 0 mm 3 mps 755 mmHg 96%
07:00 +26°C° 0 mm 3 mps 756 mmHg 88%
08:00 +28°C° 0 mm 3 mps 757 mmHg 80%
09:00 +30°C° 0 mm 3 mps 757 mmHg 72%
10:00 +33°C° 0 mm 3 mps 757 mmHg 65%
11:00 +34°C° 0 mm 3 mps 757 mmHg 58%
12:00 +36°C° 0 mm 2 mps 757 mmHg 51%
13:00 +35°C° 0.3 mm 3 mps 756 mmHg 55%
14:00 +35°C° 0.3 mm 4 mps 755 mmHg 59%
15:00 +34°C° 0.3 mm 4 mps 754 mmHg 62%
16:00 +33°C° 0.6 mm 4 mps 754 mmHg 68%
17:00 +30°C° 0.6 mm 3 mps 754 mmHg 73%
18:00 +29°C° 0.6 mm 3 mps 754 mmHg 79%
19:00 +28°C° 0.3 mm 3 mps 755 mmHg 82%
20:00 +27°C° 0.3 mm 4 mps 755 mmHg 85%
21:00 +26°C° 0.3 mm 4 mps 756 mmHg 88%
22:00 +26°C° 0 mm 4 mps 756 mmHg 88%
23:00 +26°C° 0 mm 4 mps 756 mmHg 88%

28 September, Monday

Time Temperature Precipitation Wind Pressure Humidity
00:00 +25°C° 0 mm 4 mps 756 mmHg 89%
01:00 +25°C° 0 mm 3 mps 755 mmHg 90%
02:00 +25°C° 0 mm 3 mps 755 mmHg 91%
03:00 +25°C° 0 mm 3 mps 755 mmHg 92%
04:00 +25°C° 0 mm 3 mps 755 mmHg 92%
05:00 +25°C° 0 mm 3 mps 755 mmHg 93%
06:00 +24°C° 0 mm 3 mps 755 mmHg 93%
07:00 +26°C° 0 mm 3 mps 756 mmHg 85%
08:00 +28°C° 0 mm 3 mps 756 mmHg 76%
09:00 +30°C° 0 mm 3 mps 757 mmHg 67%
10:00 +33°C° 0 mm 3 mps 757 mmHg 60%
11:00 +35°C° 0 mm 3 mps 756 mmHg 52%
12:00 +37°C° 0 mm 3 mps 756 mmHg 44%
13:00 +36°C° 0 mm 4 mps 755 mmHg 47%
14:00 +36°C° 0 mm 4 mps 755 mmHg 50%
15:00 +35°C° 0 mm 5 mps 754 mmHg 53%
16:00 +34°C° 0 mm 5 mps 754 mmHg 59%
17:00 +32°C° 0 mm 5 mps 754 mmHg 64%
18:00 +30°C° 0 mm 5 mps 754 mmHg 69%
19:00 +29°C° 0 mm 5 mps 755 mmHg 70%
20:00 +28°C° 0 mm 5 mps 756 mmHg 72%
21:00 +28°C° 0 mm 4 mps 756 mmHg 74%
22:00 +27°C° 0 mm 4 mps 756 mmHg 77%
23:00 +26°C° 0 mm 3 mps 756 mmHg 81%

29 September, Tuesday

Time Temperature Precipitation Wind Pressure Humidity
00:00 +26°C° 0 mm 3 mps 756 mmHg 84%
01:00 +26°C° 0 mm 3 mps 756 mmHg 85%
02:00 +26°C° 0 mm 3 mps 755 mmHg 85%
03:00 +26°C° 0 mm 3 mps 755 mmHg 85%
04:00 +26°C° 0 mm 3 mps 755 mmHg 87%
05:00 +25°C° 0 mm 3 mps 755 mmHg 89%
06:00 +25°C° 0 mm 3 mps 755 mmHg 90%
07:00 +27°C° 0 mm 3 mps 756 mmHg 82%
08:00 +29°C° 0 mm 3 mps 757 mmHg 73%
09:00 +31°C° 0 mm 3 mps 757 mmHg 65%
10:00 +33°C° 0 mm 4 mps 757 mmHg 58%
11:00 +35°C° 0 mm 4 mps 757 mmHg 51%
12:00 +37°C° 0 mm 4 mps 757 mmHg 44%
13:00 +36°C° 0.1 mm 5 mps 756 mmHg 48%
14:00 +35°C° 0.1 mm 5 mps 755 mmHg 52%
15:00 +34°C° 0.1 mm 6 mps 754 mmHg 56%
16:00 +33°C° 0 mm 5 mps 755 mmHg 60%
17:00 +32°C° 0 mm 5 mps 755 mmHg 63%
18:00 +30°C° 0 mm 5 mps 755 mmHg 67%
19:00 +29°C° 0 mm 5 mps 756 mmHg 68%
20:00 +29°C° 0 mm 5 mps 756 mmHg 69%
21:00 +28°C° 0 mm 4 mps 757 mmHg 70%
22:00 +27°C° 0.1 mm 4 mps 757 mmHg 77%
23:00 +26°C° 0.1 mm 4 mps 757 mmHg 83%
Show more